[[{"header":{"parameterUnit":"m.s-1","parameterCategory":1,"la1":30.2991,"la2":30.254,"lo1":-89.0895,"lo2":-89.0444,"dy":0.0017,"dx":0.0017,"nx":28,"ny":28,"refTime":"2024-08-18T21:00:00:Z","depth":0,"parameterNumber":2,"parameterNumberName":"U-component_of_WINDS"},"data":[0,0,0,0,0,0,0,0,0,0,0,0,0,0,0,0,0,0,0,0,0,0,0,0,0,0,0,0,0,0,0,0,0,0,0,0,0,0,0,0,0,0,0,0,0,0,0,0,0,0,0,0,0,0,0,0,0,0,2.6409,2.641,0,2.6512,2.6513,2.6514,2.6468,2.6465,2.6462,2.646,2.6573,2.6579,2.6584,0,0,0,0,0,0,0,0,0,0,0,0,0,2.618,2.6184,2.6409,2.641,2.6411,2.6512,2.6513,2.6515,2.6468,2.6465,2.6462,2.6459,2.6572,2.6578,2.6585,0,0,0,0,0,0,0,0,0,0,0,0,0,2.6281,2.6186,2.6409,2.64,2.64,2.6511,2.6513,2.6515,2.6469,2.6465,2.6461,2.6457,2.657,2.6577,2.6586,2.6713,0,0,2.661,2.6614,0,0,0,0,0,0,0,0,2.6275,2.6289,2.64,2.6401,2.6401,2.6473,2.6474,2.6582,2.647,2.6443,2.646,2.6455,2.6544,2.6554,2.6582,2.6719,2.6724,2.6611,2.6616,2.662,2.6622,0,0,0,0,0,0,0,2.6268,2.6285,2.645,2.6402,2.6403,2.6394,2.6404,2.6494,2.6514,2.6445,2.6442,2.6454,2.6543,2.6574,2.6584,2.6725,2.6611,2.6618,2.6623,2.6626,2.6974,2.6978,0,0,0,0,0,0,2.626,2.6279,2.6447,2.6453,2.6327,2.6401,2.6412,2.6454,2.6513,2.6518,2.6457,2.6452,2.6562,2.6575,2.6588,2.6742,2.662,2.6627,2.6632,2.697,2.6975,2.698,0,0,0,0,0,0,2.6256,2.6276,2.6442,2.6365,2.6386,2.6409,2.6456,2.6458,2.6488,2.6522,2.6526,2.6485,2.6559,2.6576,2.6682,2.6745,2.6631,2.6638,2.6965,2.6971,2.6977,2.705,0,0,0,0,0,0,2.6249,2.6274,2.6321,2.6366,2.639,2.6533,2.646,2.6463,2.6502,2.6495,2.6549,2.6554,2.6558,2.667,2.669,2.6754,2.6645,2.6959,2.6968,2.6975,2.7042,2.7058,2.7072,0,0,0,0,0,2.6241,2.6339,2.6324,2.6344,2.6448,2.6536,2.655,2.655,2.6507,2.6555,2.6577,2.6552,2.6735,2.6682,2.6704,2.6771,2.6955,2.6965,2.6975,2.7036,2.7055,2.7072,0,0,0,0,0,0,2.6302,2.6345,2.6328,2.6443,2.6486,2.6528,2.6589,2.6571,2.6629,2.6621,2.6621,2.6633,2.6743,2.6768,2.6707,2.6899,2.6839,2.6854,2.6878,2.6897,2.6911,2.6903,2.6651,0,0,0,0,0,2.6329,2.6394,2.6429,2.6527,2.6549,2.6566,2.6604,2.66,2.6646,2.6665,2.6694,2.6742,2.681,2.6855,2.692,2.7046,2.7058,2.7104,2.7119,2.7131,2.7143,2.7213,2.7234,2.7012,2.7012,2.7012,0,0,2.6385,2.6416,2.6458,2.654,2.6573,2.6643,2.6581,2.6658,2.671,2.6677,2.6777,2.6802,2.6855,2.6972,2.7025,2.6996,2.7207,2.7143,2.7152,2.7159,2.7225,2.7246,2.7265,2.7018,2.7017,2.7016,0,0,2.6522,2.6552,2.6637,2.6671,2.6721,2.6732,2.6752,2.6798,2.6811,2.6912,2.6889,2.6953,2.707,2.7109,2.7145,2.7299,2.7278,2.732,2.7398,2.7466,2.7483,2.7499,2.7554,2.7574,2.7333,2.7333,2.7333,0,2.6586,2.6687,2.6684,2.6762,2.6799,2.6771,2.6858,2.6893,2.6963,2.699,2.6957,2.7103,2.7138,2.7263,2.7301,2.733,2.7355,2.7313,2.7481,2.7496,2.7511,2.7563,2.7584,2.7338,2.7337,2.7337,2.7336,0,2.6764,2.6835,2.6898,2.6964,2.7009,2.7092,2.7103,2.715,2.7143,2.7158,2.7262,2.7302,2.7374,2.7404,2.7399,2.753,2.751,2.7479,2.7419,2.7537,2.7586,2.7606,2.7345,2.7343,2.7341,2.734,0,0,2.6941,2.7003,2.7027,2.7056,2.711,2.7167,2.725,2.7318,2.7358,2.7408,2.7479,2.7579,2.755,2.759,2.759,2.765,2.777,2.7611,2.7612,2.7639,2.7917,2.7939,2.7962,2.7757,2.7761,2.7764,2.7912,0,2.7082,2.7223,2.7223,2.7354,2.7421,2.7396,2.7468,2.7511,2.7528,2.7589,2.7609,2.768,2.7636,2.7661,2.7719,2.7742,2.7825,2.7732,2.7824,2.7827,2.7809,2.7988,2.8012,2.815,2.7931,2.7935,2.7937,0,2.7264,2.7317,2.7455,2.75,2.7528,2.7592,2.7655,2.7714,2.7763,2.7771,2.7816,2.7807,2.7894,2.7832,2.7953,2.7889,2.7928,2.7945,2.7951,2.7958,2.7888,2.8,2.8194,2.8214,2.7968,2.7965,2.7963,0,2.7379,2.7486,2.7581,2.7608,2.7663,2.7709,2.7735,2.7779,2.7821,2.7878,2.7905,2.7972,2.8009,2.8062,2.8072,2.8026,2.8194,2.8132,2.8204,2.8204,2.8239,2.8237,2.8441,2.8266,2.8266,2.8265,2.8265,0,2.7535,2.762,2.7634,2.7693,2.7788,2.7789,2.7885,2.7907,2.7947,2.8012,2.7996,2.8058,2.8068,2.8133,2.8142,2.8241,2.8258,2.8269,2.827,2.8269,2.8268,2.8293,2.8284,2.8271,2.827,2.8268,2.8268,0,2.7678,2.7691,2.7794,2.7837,2.785,2.7919,2.7957,2.8015,2.8031,2.8113,2.8133,2.8159,2.8234,2.825,2.834,2.8347,2.8464,2.8456,2.8446,2.8445,2.8516,2.8509,2.8743,2.8774,2.8579,2.8581,2.8583,0,2.7776,2.7841,2.7891,2.7932,2.7959,2.8026,2.8068,2.8073,2.8118,2.8179,2.823,2.8303,2.8362,2.8485,2.8513,2.8583,2.8576,2.8654,2.8587,2.8584,2.8577,2.8572,2.8579,2.8666,2.8668,2.867,2.8671,0,2.7949,2.7953,2.8012,2.8075,2.8124,2.8174,2.8222,2.8258,2.8269,2.8321,2.8397,2.8442,2.8534,2.8608,2.8677,2.8707,2.8692,2.8692,2.8712,2.8712,2.8703,2.8708,2.848,2.8687,2.8685,2.8684,2.8683,2.8682,2.8073,2.8129,2.8173,2.824,2.8277,2.8322,2.8378,2.84,2.8463,2.8536,2.8536,2.8619,2.8669,2.876,2.8794,2.8861,2.8837,2.8866,2.8874,2.8881,2.8886,2.8693,2.8874,2.8874,2.8873,2.8873,2.8873,0,2.8244,2.8271,2.8333,2.8399,2.8453,2.8433,2.8485,2.8532,2.8604,2.8651,2.8708,2.8797,2.8869,2.8903,2.8974,2.9021,2.9017,2.904,2.9036,2.9043,2.8904,2.8879,2.9043,2.9043,2.9043,2.9043,2.9043,2.9043,2.8339,2.8433,2.8442,2.8555,2.8583,2.8662,2.8694,2.8736,2.8773,2.8871,2.893,2.8951,2.8993,2.9068,2.9133,2.9142,2.9169,2.9196,2.9201,2.907,2.9053,2.9036,2.9013,2.9202,2.9202,2.9334,2.9335,2.9336]},{"header":{"parameterUnit":"m.s-1","parameterCategory":1,"la1":30.2991,"la2":30.254,"lo1":-89.0895,"lo2":-89.0444,"dy":0.0017,"dx":0.0017,"nx":28,"ny":28,"refTime":"2024-08-18T21:00:00:Z","depth":0,"parameterNumber":3,"parameterNumberName":"V-component_of_WINDS"},"data":[0,0,0,0,0,0,0,0,0,0,0,0,0,0,0,0,0,0,0,0,0,0,0,0,0,0,0,0,0,0,0,0,0,0,0,0,0,0,0,0,0,0,0,0,0,0,0,0,0,0,0,0,0,0,0,0,0,0,3.3634,3.3637,0,3.3917,3.392,3.3923,3.3961,3.3959,3.3956,3.3953,3.4241,3.4251,3.4261,0,0,0,0,0,0,0,0,0,0,0,0,0,3.3125,3.3134,3.3634,3.3638,3.3641,3.3916,3.392,3.3924,3.3962,3.3958,3.3955,3.3952,3.4237,3.4249,3.4261,0,0,0,0,0,0,0,0,0,0,0,0,0,3.337,3.3137,3.3633,3.3693,3.3701,3.3915,3.392,3.3925,3.3962,3.3958,3.3954,3.3951,3.4233,3.4248,3.4263,3.4436,0,0,3.431,3.4316,0,0,0,0,0,0,0,0,3.3356,3.3389,3.3681,3.369,3.3699,3.39,3.3846,3.4096,3.3963,3.3863,3.3953,3.3949,3.413,3.4154,3.4215,3.445,3.4462,3.4311,3.432,3.4327,3.4331,0,0,0,0,0,0,0,3.3339,3.3377,3.3746,3.3685,3.3696,3.3705,3.3735,3.3893,3.4016,3.3872,3.3875,3.3908,3.4134,3.4201,3.4222,3.4466,3.431,3.4324,3.4333,3.4339,3.4855,3.486,0,0,0,0,0,0,3.3312,3.3363,3.3737,3.3754,3.3514,3.3717,3.3751,3.3839,3.4014,3.4037,3.3911,3.3909,3.4177,3.4205,3.4233,3.4447,3.4326,3.4341,3.4349,3.4851,3.4856,3.4861,0,0,0,0,0,0,3.3301,3.3345,3.3725,3.356,3.3609,3.373,3.3829,3.3847,3.3913,3.4044,3.4066,3.3957,3.4175,3.4211,3.4385,3.4457,3.4348,3.4361,3.4845,3.4852,3.4859,3.4876,0,0,0,0,0,0,3.3286,3.334,3.3409,3.3561,3.3617,3.3875,3.3833,3.3855,3.3939,3.3939,3.4092,3.4114,3.4174,3.4362,3.44,3.4476,3.4373,3.4839,3.4849,3.4857,3.4869,3.4882,3.4893,0,0,0,0,0,3.3267,3.3402,3.3412,3.3457,3.3705,3.3879,3.3911,3.3978,3.3945,3.4014,3.4097,3.4109,3.4442,3.438,3.4423,3.4504,3.4835,3.4846,3.4856,3.4864,3.488,3.4893,0,0,0,0,0,0,3.3255,3.3423,3.3436,3.3624,3.3737,3.3885,3.3974,3.3993,3.4118,3.4112,3.4189,3.4224,3.4394,3.4466,3.4393,3.468,3.4636,3.4655,3.4627,3.4643,3.4655,3.4634,3.4386,0,0,0,0,0,3.3274,3.3402,3.3541,3.3694,3.375,3.3852,3.393,3.3972,3.4092,3.4139,3.4236,3.4351,3.4481,3.4566,3.4694,3.4879,3.4912,3.4956,3.4968,3.4977,3.4993,3.5096,3.5116,3.4895,3.4895,3.4895,0,0,3.3315,3.3423,3.3499,3.3694,3.3786,3.3916,3.3892,3.403,3.4127,3.416,3.4331,3.4405,3.4538,3.4718,3.4803,3.4784,3.5061,3.499,3.4997,3.5008,3.5108,3.5129,3.5148,3.4902,3.4901,3.49,0,0,3.3456,3.3551,3.3688,3.378,3.392,3.3987,3.4019,3.4165,3.4215,3.4387,3.4415,3.453,3.4754,3.4847,3.4924,3.5097,3.5112,3.5136,3.52,3.5299,3.5316,3.5332,3.5393,3.5415,3.5152,3.5152,3.5152,0,3.349,3.3687,3.3755,3.3893,3.3977,3.4013,3.4151,3.4238,3.4412,3.4469,3.4445,3.4726,3.4818,3.502,3.5062,3.5123,3.5162,3.512,3.5308,3.5325,3.534,3.54,3.5423,3.5154,3.5154,3.5153,3.5153,0,3.372,3.3856,3.395,3.4117,3.4212,3.4349,3.4437,3.4525,3.4557,3.4626,3.4799,3.4911,3.5061,3.5112,3.5145,3.5318,3.5302,3.5292,3.525,3.5362,3.542,3.5443,3.5157,3.5156,3.5156,3.5155,0,0,3.3864,3.4066,3.4099,3.4175,3.4331,3.4437,3.4574,3.4721,3.4794,3.4912,3.5029,3.5216,3.5208,3.5295,3.5338,3.5425,3.5554,3.5405,3.5409,3.5429,3.575,3.5757,3.5783,3.5564,3.5569,3.5572,3.5739,0,3.4023,3.4271,3.4335,3.4545,3.4671,3.4706,3.4825,3.4933,3.5,3.5115,3.5189,3.532,3.5299,3.5352,3.5439,3.552,3.562,3.5509,3.5673,3.5678,3.564,3.5813,3.5821,3.5974,3.5762,3.5766,3.5769,0,3.4243,3.4365,3.4588,3.4726,3.4781,3.4888,3.5027,3.5137,3.5259,3.5301,3.5397,3.5432,3.5575,3.5524,3.5721,3.5644,3.5714,3.5764,3.5771,3.579,3.5731,3.5837,3.6024,3.6047,3.5805,3.5802,3.5799,0,3.4325,3.4545,3.4707,3.477,3.4936,3.5009,3.5081,3.52,3.5283,3.5404,3.5459,3.5594,3.5669,3.5772,3.5842,3.5798,3.6033,3.5988,3.6072,3.607,3.6121,3.6117,3.6323,3.6165,3.6165,3.6164,3.6164,0,3.4496,3.4631,3.4746,3.4845,3.4997,3.5068,3.5216,3.5289,3.5393,3.5506,3.5543,3.5648,3.5734,3.585,3.5906,3.606,3.6093,3.6131,3.6144,3.6129,3.6124,3.6177,3.6168,3.6171,3.6169,3.6168,3.6167,0,3.4614,3.4697,3.4875,3.5016,3.5055,3.516,3.528,3.5377,3.5444,3.5587,3.5624,3.5729,3.5868,3.5948,3.6122,3.6159,3.6331,3.6339,3.629,3.6296,3.6376,3.6368,3.6624,3.6661,3.6477,3.6479,3.648,0,3.4719,3.4824,3.4976,3.5054,3.5128,3.5254,3.5339,3.5413,3.55,3.5645,3.5725,3.5865,3.5982,3.6201,3.6293,3.6426,3.6438,3.6518,3.6458,3.6438,3.6439,3.6432,3.6443,3.6529,3.653,3.6532,3.6533,0,3.4896,3.4931,3.5053,3.5189,3.529,3.5401,3.5511,3.5572,3.5664,3.576,3.5902,3.5992,3.617,3.6309,3.6449,3.6522,3.6543,3.655,3.6577,3.6563,3.653,3.6549,3.6319,3.6545,3.6544,3.6543,3.6542,3.6542,3.5011,3.5105,3.5227,3.5361,3.5451,3.5552,3.565,3.5729,3.5849,3.6,3.6036,3.6185,3.6302,3.6493,3.6568,3.6685,3.6671,3.671,3.672,3.6728,3.6731,3.651,3.6711,3.6711,3.6711,3.671,3.671,0,3.519,3.5269,3.5392,3.5544,3.565,3.5659,3.5781,3.5868,3.5999,3.6107,3.6221,3.6383,3.6518,3.6619,3.6756,3.683,3.6842,3.6863,3.6859,3.6875,3.6736,3.6699,3.6851,3.6851,3.685,3.685,3.685,3.685,3.5295,3.5455,3.5504,3.5708,3.5786,3.5934,3.6002,3.6095,3.6181,3.6361,3.6473,3.6538,3.6643,3.6787,3.691,3.6936,3.6985,3.7005,3.7032,3.69,3.6885,3.6871,3.6837,3.7015,3.7015,3.7162,3.7163,3.7164]}]]